#timestamp,LO_Frequency,Hit,StdDev 
1657072815.6,286047002.7,N
1657072835.5,286047001.4,N
1657072855.3,286047003.8,Y
1657072875.1,286047001.5,P
1657072895.9,286047002.6,P
1657072915.7,286047002.1,P
1657072935.6,286047002.7,Y
1657072955.4,286047001.0,P
1657072975.2,286047002.7,P
1657072995.1,286047002.8,P
1657072996.0,286047002.8,Y
1657073015.8,286046996.9,P
1657073035.7,286046996.8,N
1657073055.5,286046996.9,N
1657073075.3,286046999.1,N
1657073095.2,286046999.0,N
1657073115.9,286046998.6,N
1657073135.7,286047000.5,N
1657073155.6,286047000.3,N
1657073175.4,286047001.0,N
1657073195.2,286046999.3,N
1657073215.1,286046997.7,N
1657073216.0,286046997.7,N
1657073235.8,286046995.0,Y
1657073255.7,286046997.3,P
1657073275.5,286046997.2,P
1657073295.3,286046999.2,N
1657073315.2,286046996.5,Y
1657073335.0,286046998.7,P
1657073335.9,286046998.7,P
1657073355.8,286047000.2,N
1657073375.6,286047001.8,N
1657073395.4,286047004.4,Y
1657073415.3,286047004.2,P
1657073435.1,286047003.4,N
1657073455.9,286047003.4,N
1657073475.7,286047002.9,N
1657073495.5,286047003.1,N
1657073515.4,286047002.0,N
1657073535.2,286046999.7,N
1657073555.0,286047001.1,N
1657073556.0,286047001.1,N
1657073575.8,286046998.6,N
1657073595.6,286046998.7,N
1657073615.5,286046998.1,N
1657073635.3,286046998.7,N
1657073655.1,286046998.2,N
1657073675.9,286046998.4,N
1657073695.7,286047000.5,N
1657073715.6,286047000.0,N
1657073735.4,286047000.1,N
1657073755.2,286047002.8,N
1657073775.1,286047002.4,N
1657073776.0,286047002.4,N
1657073795.8,286047002.8,N
1657073815.6,286047002.2,N
1657073835.5,286047002.8,N
1657073855.3,286046999.7,N
1657073875.1,286047002.7,N
1657073895.9,286046999.8,N
1657073915.7,286046999.9,N
1657073935.6,286047000.7,N
1657073955.4,286047000.6,N
1657073975.2,286047000.9,N
1657073995.1,286047000.9,N
1657073996.0,286047000.9,N
1657074015.8,286047000.3,N
1657074035.6,286047000.5,N
1657074055.5,286047000.5,N
1657074075.3,286047000.1,N
1657074095.2,286047000.0,N
1657074115.9,286047000.5,N
1657074135.7,286047000.0,N
1657074155.6,286046999.7,N
1657074175.4,286046999.9,N
1657074195.2,286047000.4,N
1657074215.1,286047002.8,N
1657074216.0,286047002.8,N
1657074235.8,286047000.7,N
1657074255.7,286046999.7,N
1657074275.5,286047000.1,N
1657074295.3,286047004.4,Y
1657074315.2,286046999.8,P
1657074335.0,286047000.3,N
1657074335.9,286047000.3,N
1657074355.8,286046998.2,Y
1657074375.6,286046999.3,P
1657074395.4,286046999.2,N
1657074415.3,286046996.5,P
1657074435.1,286046996.6,N
1657074436.0,286046996.6,N
1657074455.8,286046998.7,N
1657074475.7,286046998.9,N
1657074495.5,286046999.6,N
1657074515.3,286046997.4,N
1657074535.2,286046996.5,N
1657074555.0,286046996.6,N
1657074555.9,286046996.6,N
1657074575.8,286046999.4,N
1657074595.6,286047001.2,N
1657074615.4,286046998.9,N
1657074635.3,286046998.4,N
1657074655.1,286047000.8,N
1657074675.8,286046998.3,N
1657074695.7,286046998.3,N
1657074715.5,286047000.7,N
1657074735.4,286047000.7,N
1657074755.2,286046998.9,N
1657074775.0,286046996.9,N
1657074775.9,286046996.9,N
1657074795.8,286046999.3,N
1657074815.6,286047001.0,N
1657074835.5,286047000.7,N
1657074855.3,286046999.6,N
1657074875.1,286046999.4,N
1657074895.9,286046996.9,N
1657074915.7,286046998.4,N
1657074935.5,286046997.1,N
1657074955.4,286046997.6,N
1657074975.2,286046996.6,N
1657074995.1,286046994.9,Y
1657074996.0,286046994.9,P
1657075015.8,286046998.2,N
1657075035.6,286046998.7,N
1657075055.5,286046996.7,N
1657075075.3,286046997.1,N
1657075095.2,286046999.0,N
1657075115.9,286047000.9,N
1657075135.7,286047001.0,N
1657075155.6,286046998.7,N
1657075175.4,286046998.5,N
1657075195.2,286047000.7,N
1657075215.1,286046998.5,N
1657075216.0,286046998.5,N
1657075235.8,286047002.2,N
1657075255.7,286047001.1,N
1657075275.5,286046998.7,N
1657075295.3,286046999.2,N
1657075315.2,286046999.6,N
1657075335.0,286046996.7,N
1657075335.9,286046996.7,N
1657075355.7,286046997.7,N
1657075375.6,286046999.0,N
1657075395.4,286046998.5,N
1657075415.3,286046998.7,N
1657075435.1,286046999.4,N
1657075436.0,286046999.4,N
1657075455.8,286046999.5,N
1657075475.7,286046998.4,N
1657075495.5,286047000.2,N
1657075515.3,286047001.2,N
1657075535.2,286047000.1,N
1657075555.0,286047000.5,N
1657075555.9,286047000.5,N
1657075575.8,286047001.6,N
1657075595.6,286047001.4,N
1657075615.4,286047002.8,N
1657075635.3,286047001.2,N
1657075655.1,286046999.3,N
1657075675.8,286046999.1,N
1657075695.7,286046999.5,N
1657075715.5,286046999.0,N
1657075735.4,286046999.6,N
1657075755.2,286046998.8,N
1657075775.0,286046998.5,N
1657075775.9,286046998.5,N
1657075795.8,286046998.6,N
1657075815.6,286046998.1,N
1657075835.5,286046998.3,N
1657075855.3,286046998.5,N
1657075875.1,286046998.5,N
1657075895.9,286046999.0,N
1657075915.7,286046999.3,N
1657075935.5,286046999.6,N
1657075955.4,286046997.0,N
1657075975.2,286046996.8,N
1657075995.1,286046999.1,N
1657075996.0,286046999.1,N
1657076015.8,286046998.7,N
1657076035.6,286046999.4,N
1657076055.5,286046998.6,N
1657076075.3,286046999.6,N
1657076095.2,286046998.3,N
1657076115.9,286046996.6,N
1657076135.7,286046998.6,N
1657076155.6,286046998.4,N
1657076175.4,286046998.1,N
1657076195.2,286046999.2,N
1657076215.1,286046999.0,N
1657076216.0,286046999.0,N
1657076235.8,286046996.5,Y
1657076255.7,286046998.6,P
1657076275.5,286046998.6,P
1657076295.3,286047001.0,P
1657076315.2,286047001.1,N
1657076335.0,286046998.2,N
1657076335.9,286046998.2,N
1657076355.8,286047001.1,N
1657076375.6,286046998.7,N
1657076395.4,286046998.4,N
